Powrót do katalogu

CZ-4 DEB

AktywnySSO
NORAD 26446·DEBRIS·🇨🇳 China

Wystrzelony Oct 14, 1999 z Taiyuan Satellite Launch Center

Loading…

Następne Przeloty (najbliższe 24 godziny)

TLE

ŚwieżeSource: Space-Track

Epoka: Sep 14, 2026, 11:27 UTC

1 26446U 99057KT  26257.47775912  .00001117  00000-0  28979-3 0  9994
2 26446  98.5495 331.0257 0092640 207.5323 152.0947 14.49273261383986

Śledź CZ-4 DEB w czasie rzeczywistym z AllMySat

Download on the App Store